Regional Weather Roundup
Issued by NWS

Home | Current Version | Previous Version | Graphics & Text | Print | Product List | Glossary On
Versions: 1 2 3 4 5 6 7 8 9 10 11 12 13 14 15 16 17 18 19 20 21 22 23 24 25 26 27 28 29 30 31 32 33 34 35 36 37 38 39 40 41 42 43 44 45 46 47 48 49 50
000
ASUS44 KMEG 240810
RWRTN
TENNESSEE HOURLY STATE WEATHER ROUNDUP
NATIONAL WEATHER SERVICE MEMPHIS TN
200 AM CST TUE JAN 24 2017

TNZ002-004-019-021-049-052-054-088>092-240900-
WEST TENNESSEE

CITY           SKY/WX    TMP DP  RH WIND       PRES   REMARKS
MEMPHIS INTL   CLEAR     38  36  92 CALM      29.88R
NWS MEMPHIS      N/A     35 N/A N/A MISG        N/A
JACKSON        PTCLDY    31  31 100 CALM      29.89R
DYERSBURG      PTCLDY    34  30  86 CALM      29.89R
UNION CITY       N/A    N/A N/A N/A CALM      29.87R VSB 1/2
PARIS          CLOUDY    37  34  87 CALM      29.87R
HUNTINGDON     CLOUDY    41  36  81 CALM      29.87R
$$

TNZ008-025-027-028-033-062-065-066-240900-
NORTH MIDDLE TENNESSEE

CITY           SKY/WX    TMP DP  RH WIND       PRES   REMARKS
NASHVILLE      CLOUDY    42  33  70 NW7       29.84R
PORTLAND       CLOUDY    41  36  81 NW8       29.82S
CLARKSVILLE    CLOUDY    41  33  73 NW9       29.85R
SMYRNA         CLOUDY    41  35  79 NW9       29.85R
GALLATIN       CLOUDY    41  36  81 NW7       29.86S
CROSSVILLE     CLOUDY    36  35  96 W10       29.77R FOG     WCI  28
$$

TNZ061-075-076-078-094-096-097-240900-
SOUTH MIDDLE TENNESSEE

CITY           SKY/WX    TMP DP  RH WIND       PRES   REMARKS
TULLAHOMA      CLOUDY    39  36  87 N7        29.81R WCI  34
WINCHESTER     CLOUDY    41  37  87 N6        29.79R
MCMINNVILLE    CLOUDY    37  37 100 NW3         N/A
COLUMBIA       CLOUDY    41  39  93 NW3       29.84R
SHELBYVILLE    CLOUDY    43  37  81 N7        29.84R
$$

TNZ017-018-042-046-047-240900-
NORTHEAST TENNESSEE

CITY           SKY/WX    TMP DP  RH WIND       PRES   REMARKS
TRI CITIES     CLOUDY    45  41  86 W10       29.66R
ELIZABETHTON   DRIZZLE   46  41  81 W10G17    29.65R
$$

TNZ012-013-036-069-073-074-240900-
CENTRAL EAST TENNESSEE

CITY           SKY/WX    TMP DP  RH WIND       PRES   REMARKS
KNOXVILLE      CLOUDY    44  39  82 W13       29.76R
OAK RIDGE      CLOUDY    44  39  82 VRB3      29.77R
GATLINBURG     CLOUDY    45  39  81 SW9       29.74R
MORRISTOWN     CLOUDY    43  43 100 W9        29.72R FOG
JACKSBORO      CLOUDY    41  39  93 VRB5      29.78S
$$

TNZ083-085-099-240900-
SOUTHEAST TENNESSEE

CITY           SKY/WX    TMP DP  RH WIND       PRES   REMARKS
CHATTANOOGA    CLOUDY    45  38  76 NW7       29.80R
$$

SKY/WX REPORTED AS FAIR MEANS FEW OR NO CLOUDS BELOW
12 THOUSAND FEET.




USA.gov is the U.S. government's official web portal to all federal, state and local government web resources and services.